This demonstration page uses our WeatherBlox Daily Observations layout. Learn more.

Left ArrowRight Arrow

Hourly Observations for May 11, 2017

Temp ( °F °C ) Dew Point ( °F °C ) Humidity (%) Winds ( mph kmh ) Pressure ( in mb ) Visibility ( mi km ) Precip ( " mm )
12:54 am 00:54 Clear 53 11.7 50 10 89 89 NNE 7 11 29.97 1015 9 14.48406 0 0
1:54 am 01:54 Clear 54 12.2 50 10 87 87 NNE 6 9 29.97 1015 10 16.0934 0 0
2:54 am 02:54 Clear 51 10.6 49 9.4 92 92 N 8 13 29.97 1015 9 14.48406 0 0
3:54 am 03:54 Clear 53 11.7 49 9.4 86 86 NNW 9 15 30 1016 10 16.0934 0 0
4:54 am 04:54 Mostly Cloudy 53 11.7 50 10 89 89 NNW 6 9 30.03 1017 10 16.0934 0 0
5:54 am 05:54 Clear 51 10.6 48 8.9 89 89 N 8 13 30.01 1016 8 12.87472 0 0
6:54 am 06:54 Sunny 52 11.1 48 8.9 86 86 N 8 13 30.03 1017 10 16.0934 0 0
7:54 am 07:54 Sunny 55 12.8 50 10 83 83 N 8 13 30.03 1017 10 16.0934 0 0
8:54 am 08:54 Cloudy 59 15 50 10 72 72 NNE 12 19 30.04 1017 10 16.0934 0 0
9:54 am 09:54 Cloudy 62 16.7 50 10 65 65 NNE 8 13 30.04 1017 10 16.0934 0 0
10:54 am 10:54 Mostly Cloudy 65 18.3 50 10 59 59 NNE 6 9 30.07 1018 10 16.0934 0 0
11:54 am 11:54 Cloudy 66 18.9 52 11.1 61 61 NNE 8 13 30.07 1018 10 16.0934 0 0
12:54 pm 12:54 Sunny 69 20.6 54 12.2 59 59 N 12 19 30.04 1017 10 16.0934 0 0
1:54 pm 13:54 Mostly Sunny 68 20 52 11.1 57 57 N 13 20 30.04 1017 10 16.0934 0 0
2:54 pm 14:54 Sunny 67 19.4 50 10 55 55 NE 14 22 30.03 1017 10 16.0934 0 0
3:54 pm 15:54 Sunny 70 21.1 48 8.9 46 46 NE 12 19 30.01 1016 10 16.0934 0 0
4:54 pm 16:54 Sunny 72 22.2 46 7.8 40 40 N 16 26 29.98 1015 10 16.0934 0 0
5:54 pm 17:54 Sunny 70 21.1 44 6.7 39 39 NNE 15 24 29.97 1015 10 16.0934 0 0
6:54 pm 18:54 Sunny 69 20.6 41 5 36 36 NNE 17 28 30 1016 10 16.0934 0 0
7:54 pm 19:54 Sunny 65 18.3 42 5.6 43 43 NNE 10 17 30.03 1017 10 16.0934 0 0
8:54 pm 20:54 Clear 57 13.9 42 5.6 58 58 NNE 6 9 30.06 1018 10 16.0934 0 0
9:54 pm 21:54 Clear 54 12.2 43 6.1 67 67 NNW 7 11 30.06 1018 10 16.0934 0 0
10:54 pm 22:54 Clear 50 10 43 6.1 77 77 N 7 11 30.06 1018 10 16.0934 0 0
11:54 pm 23:54 Clear 50 10 43 6.1 77 77 N 7 11 30.06 1018 10 16.0934 0 0

Powered by AerisWeather